This is the latest recevied weather packets stored in our database for station/object K7YVO. If no packets are shown the sender has not sent any weather packets the latest 10 day(s).
| Time | Temp. | Humidity | Pressure | Rain* | Wind** | Luminosity | Snow |
|---|---|---|---|---|---|---|---|
| 1778020128 | 16.11° C | 74% | 1018 hPa | 0 mm | - | 150 W/m² | - |
| 1778019824 | 16.67° C | 73% | 1018.1 hPa | 0 mm | - | 151 W/m² | - |
| 1778019521 | 16.67° C | 73% | 1018.2 hPa | 0 mm | - | 159 W/m² | - |
| 1778019218 | 16.67° C | 73% | 1018.2 hPa | 0 mm | - | 206 W/m² | - |
| 1778018915 | 16.11° C | 72% | 1018.1 hPa | 0 mm | - | 225 W/m² | - |
| 1778018612 | 16.11° C | 73% | 1018.1 hPa | 0 mm | - | 207 W/m² | - |
| 1778018310 | 16.67° C | 72% | 1018.1 hPa | 0 mm | - | 192 W/m² | - |
| 1778018008 | 16.67° C | 71% | 1018.1 hPa | 0 mm | - | 187 W/m² | - |
| 1778017706 | 16.67° C | 71% | 1018.4 hPa | 0 mm | - | 218 W/m² | - |
| 1778017403 | 16.11° C | 73% | 1018.3 hPa | 0 mm | - | 221 W/m² | - |
| 1778017100 | 15.56° C | 73% | 1018.5 hPa | 0 mm | - | 217 W/m² | - |
| 1778016798 | 16.11° C | 73% | 1018.3 hPa | 0 mm | - | 200 W/m² | - |
| 1778016493 | 16.11° C | 72% | 1018.3 hPa | 0 mm | - | 227 W/m² | - |
| 1778016191 | 16.11° C | 73% | 1018.3 hPa | 0 mm | - | 280 W/m² | - |
| 1778015887 | 15.56° C | 74% | 1018.3 hPa | 0 mm | - | 470 W/m² | - |
| 1778015585 | 15.56° C | 74% | 1018.4 hPa | 0 mm | - | 315 W/m² | - |
| 1778015281 | 15.56° C | 75% | 1018.5 hPa | 0 mm | - | 319 W/m² | - |
| 1778014978 | 15° C | 76% | 1018.3 hPa | 0 mm | - | 318 W/m² | - |
| 1778014675 | 15° C | 78% | 1018.6 hPa | 0 mm | - | 248 W/m² | - |
| 1778014373 | 15° C | 79% | 1018.7 hPa | 0 mm | - | 228 W/m² | - |
| 1778014069 | 15° C | 79% | 1018.5 hPa | 0 mm | - | 198 W/m² | - |
| 1778013767 | 15° C | 78% | 1018.6 hPa | 0 mm | - | 168 W/m² | - |
| 1778013464 | 14.44° C | 80% | 1018.5 hPa | 0 mm | - | 171 W/m² | - |
| 1778013161 | 15° C | 79% | 1018.6 hPa | 0 mm | - | 154 W/m² | - |
| 1778012857 | 15° C | 79% | 1018.6 hPa | 0 mm | - | 166 W/m² | - |
* Rain latest hour (hover to see other rain measurements)
** Current wind speed in m/s (hover to see current wind gust speed)